Location: Newark
(45.0500°N, 41.9667°E)
Time: 03:37:43
(UTC+00:00)

Starlink (trailer) - Pass Details

Date: 23 July 2019
Orbit: 549 x 551 km, 53.0° (Epoch: 23 August)

Event Time Altitude Azimuth Distance (km) Brightness Sun altitude
Exits shadow 22:50:32 21° 285° (WNW) 1,282 5.4 -21.7°
Maximum altitude 22:52:49 37° 341° (NNW) 862 4.9 -21.5°
Drops below altitude 10° 22:56:42 10° 51° (NE) 1,829 7.2 -21.2°
Sets 22:59:04 0° 59° (ENE) 2,724 8.1 -21.1°
